Weather History for KMMU - October, 2012

Change the Weather History Date:

Wednesday, October 17, 2012

  Actual Average Record
Temperature  
Mean Temperature 47 °F -  
Max Temperature 62 °F 67 °F 89 °F (1938)
Min Temperature 32 °F 40 °F 16 °F (1937)
Degree Days  
Heating Degree Days 18    
Moisture  
Dew Point 36 °F    
Average Humidity 88    
Maximum Humidity 100    
Minimum Humidity 42    
Precipitation  
Precipitation 0.00 in - - ()
Sea Level Pressure  
Sea Level Pressure 29.97 in    
Wind  
Wind Speed 1 mph (SW)    
Max Wind Speed 9 mph    
Max Gust Speed -    
Visibility 8 miles    
Events      
Averages and records for this station are not official NWS values.
T = Trace of Precipitation, MM = Missing Value Source: NWS Daily Summary

Daily Weather History Graph

Daily Weather History Graph

Search for Another Location

Airport or City:

Trip Planner

Search our weather history database for the weather conditions in past years. The results will help you decide how hot, cold, wet, or windy it might be!

Date:

Astronomy

Oct. 17, 2012 Rise Set
Actual Time 7:11 AM EDT 6:13 PM EDT
Civil Twilight 6:43 AM EDT 6:41 PM EDT
Nautical Twilight 6:12 AM EDT 7:13 PM EDT
Astronomical Twilight 5:40 AM EDT 7:44 PM EDT
Moon 9:44 AM EDT (10/17) 7:46 PM EDT (10/17)
Length of Visible Light 11h 57m
Length of Day
11h 01m
Waxing Crescent, 7% of the Moon is Illuminated
Oct 17
Waxing Crescent
Oct 21
First Quarter
Oct 29
Full
Nov 6
Last Quarter
Nov 13
New

Hourly Weather History & Observations

Time (EDT) Temp. Dew Point Humidity Pressure Visibility Wind Dir Wind Speed Gust Speed Precip Events Conditions
12:15 AM 33.8 °F 33.8 °F 100% 29.94 in 10.0 mi Calm Calm - N/A   Clear
12:35 AM 33.8 °F 33.8 °F 100% 29.94 in 10.0 mi Calm Calm - N/A   Clear
12:55 AM 33.8 °F 33.8 °F 100% 29.94 in 10.0 mi Calm Calm - N/A   Clear
1:15 AM 33.8 °F 33.8 °F 100% 29.94 in 4.0 mi Calm Calm - N/A   Clear
1:35 AM 32.0 °F 32.0 °F 100% 29.93 in 3.0 mi Calm Calm - N/A   Clear
1:55 AM 33.8 °F 33.8 °F 100% 29.94 in 10.0 mi Calm Calm - N/A   Clear
2:15 AM 33.8 °F 33.8 °F 100% 29.95 in 7.0 mi Calm Calm - N/A   Clear
2:35 AM 32.0 °F 32.0 °F 100% 29.94 in 7.0 mi Calm Calm - N/A   Clear
2:55 AM 33.8 °F 33.8 °F 100% 29.94 in 10.0 mi Calm Calm - N/A   Clear
3:15 AM 32.0 °F 32.0 °F 100% 29.95 in 10.0 mi Calm Calm - N/A   Clear
3:35 AM 32.0 °F 32.0 °F 100% 29.95 in 10.0 mi Calm Calm - N/A   Clear
3:55 AM 32.0 °F 32.0 °F 100% 29.95 in 1.2 mi Calm Calm - N/A   Mist
4:15 AM 33.8 °F 33.8 °F 100% 29.95 in 10.0 mi Calm Calm - N/A   Clear
4:35 AM 32.0 °F 32.0 °F 100% 29.95 in 7.0 mi Calm Calm - N/A   Clear
4:55 AM 32.0 °F 32.0 °F 100% 29.95 in 7.0 mi Calm Calm - N/A   Clear
5:15 AM 32.0 °F 32.0 °F 100% 29.96 in 10.0 mi Calm Calm - N/A   Clear
5:35 AM 32.0 °F 32.0 °F 100% 29.96 in 7.0 mi Calm Calm - N/A   Clear
5:55 AM 32.0 °F 32.0 °F 100% 29.97 in 10.0 mi Calm Calm - N/A   Clear
6:15 AM 32.0 °F 32.0 °F 100% 29.97 in 3.0 mi Calm Calm - N/A   Clear
6:35 AM 32.0 °F 32.0 °F 100% 29.98 in 7.0 mi Calm Calm - N/A   Clear
6:45 AM 33.8 °F 32.0 °F 93% 29.98 in 7.0 mi Calm Calm - N/A   Scattered Clouds
7:45 AM 33.8 °F 33.8 °F 100% 30.00 in 10.0 mi Calm Calm - N/A   Mostly Cloudy
8:45 AM 41.0 °F 39.2 °F 93% 30.01 in 10.0 mi Calm Calm - N/A   Mostly Cloudy
9:45 AM 46.4 °F 39.2 °F 76% 30.03 in 10.0 mi Calm Calm - N/A   Mostly Cloudy
10:45 AM 53.6 °F 41.0 °F 62% 30.02 in 10.0 mi Calm Calm - N/A   Mostly Cloudy
11:45 AM 57.2 °F 41.0 °F 55% 30.01 in 10.0 mi Calm Calm - N/A   Mostly Cloudy
12:45 PM 59.0 °F 39.2 °F 48% 29.98 in 10.0 mi NNE 4.6 mph - N/A   Mostly Cloudy
1:45 PM 60.8 °F 39.2 °F 45% 29.97 in 10.0 mi WSW 4.6 mph - N/A   Mostly Cloudy
2:45 PM 60.8 °F 41.0 °F 48% 29.94 in 10.0 mi South 4.6 mph - N/A   Mostly Cloudy
3:45 PM 62.6 °F 41.0 °F 45% 29.93 in 10.0 mi WSW 9.2 mph - N/A   Mostly Cloudy
4:45 PM 62.6 °F 39.2 °F 42% 29.94 in 10.0 mi SSW 9.2 mph - N/A   Mostly Cloudy
5:45 PM 60.8 °F 41.0 °F 48% 29.94 in 10.0 mi WSW 5.8 mph - N/A   Mostly Cloudy
7:45 PM 48.2 °F 42.8 °F 82% 29.98 in 10.0 mi Calm Calm - N/A   Clear
8:45 PM 46.4 °F 42.8 °F 87% 29.99 in 10.0 mi Calm Calm - N/A   Clear
9:45 PM 42.8 °F 41.0 °F 93% 30.00 in 10.0 mi Calm Calm - N/A   Partly Cloudy
10:55 PM 39.2 °F 39.2 °F 100% 30.00 in 10.0 mi Calm Calm - N/A   Clear
11:15 PM 37.4 °F 37.4 °F 100% 30.00 in 3.0 mi Calm Calm - N/A   Clear
11:35 PM 37.4 °F 37.4 °F 100% 30.00 in 4.0 mi Calm Calm - N/A   Scattered Clouds
11:55 PM 37.4 °F 37.4 °F 100% 29.99 in 10.0 mi Calm Calm - N/A   Clear